Powrót do katalogu

STARLINK-4513

AktywnyŁącznośćVLEO
NORAD 53548·PAYLOAD·🇺🇸 United States

Wystrzelony Aug 19, 2022 z Cape Canaveral Space Force Station

Loading…

Następne Przeloty (najbliższe 24 godziny)

TLE

ŚwieżeSource: CelesTrak SupGP

Epoka: Sep 14, 2026, 21:35 UTC

1 53548C 22101X   26257.89979167  .00020398  00000+0  12793-2 0  2571
2 53548  53.1593 294.0960 0001178  85.3754 136.0544 15.08821740    12

Śledź STARLINK-4513 w czasie rzeczywistym z AllMySat

Download on the App Store